Dades meteomassalio
Diari Summary for Maig 21, 2017 Units:  Metric    English   Both
« Previous Day
Next Day »
Diari Semanal Mensual Anual Personalitzat
  Maxima: Minima: Mijana:
Temperatura: 27.5 °C 8.8 °C 18.4 °C
Rosada: 14.7 °C 6.7 °C 10.9 °C
Humitat: 87 % 41 % 64 %
Velocitat del vent: 18.5 km/h 0.0 km/h 4.6 km/h
Racha vent: 18.5 km/h - -
Vent:- - East
Pressio: 1023.2 hPa 1015.5 hPa -
Pluja: 0.0 mm    
Historical Graphs
 
 
Tabular Data for Maig 21, 2017
Time Temperature Dew Point Pressure Wind Wind Speed Wind Gust Humidity Rainfall Rate (Hourly) solar Conditions
00:00 13.7 °C 7.9 °C 1022.9 hPa Calm     68 % 0.0 mm 0.0 W/m2 CLR
00:05 13.6 °C 7.8 °C 1022.9 hPa Calm     68 % 0.0 mm 0.0 W/m2 CLR
00:10 13.5 °C 7.9 °C 1022.9 hPa Calm     69 % 0.0 mm 0.0 W/m2 CLR
00:15 13.4 °C 7.8 °C 1022.9 hPa Calm     69 % 0.0 mm 0.0 W/m2 CLR
00:20 13.3 °C 7.7 °C 1022.9 hPa Calm     69 % 0.0 mm 0.0 W/m2 CLR
00:25 13.1 °C 7.7 °C 1022.9 hPa Calm     70 % 0.0 mm 0.0 W/m2 CLR
00:30 13.0 °C 7.7 °C 1022.9 hPa Calm     70 % 0.0 mm 0.0 W/m2 CLR
00:35 13.1 °C 7.7 °C 1022.9 hPa Calm     70 % 0.0 mm 0.0 W/m2 CLR
00:40 13.1 °C 7.7 °C 1023.2 hPa Calm     70 % 0.0 mm 0.0 W/m2 CLR
00:45 12.8 °C 7.7 °C 1023.2 hPa Calm     71 % 0.0 mm 0.0 W/m2 CLR
00:50 12.7 °C 7.6 °C 1023.2 hPa Calm     71 % 0.0 mm 0.0 W/m2 CLR
00:55 12.6 °C 7.4 °C 1023.2 hPa Calm     71 % 0.0 mm 0.0 W/m2 CLR
01:00 12.4 °C 7.6 °C 1023.2 hPa Calm     72 % 0.0 mm 0.0 W/m2 CLR
01:05 12.4 °C 7.7 °C 1023.2 hPa Calm     73 % 0.0 mm 0.0 W/m2 CLR
01:10 12.4 °C 7.6 °C 1023.2 hPa Calm     72 % 0.0 mm 0.0 W/m2 CLR
01:15 12.4 °C 7.7 °C 1023.2 hPa Calm     73 % 0.0 mm 0.0 W/m2 CLR
01:20 12.4 °C 7.7 °C 1023.2 hPa Calm     73 % 0.0 mm 0.0 W/m2 CLR
01:25 12.3 °C 7.6 °C 1023.2 hPa Calm     73 % 0.0 mm 0.0 W/m2 CLR
01:30 12.3 °C 7.6 °C 1023.2 hPa Calm     73 % 0.0 mm 0.0 W/m2 CLR
01:35 12.2 °C 7.7 °C 1023.2 hPa Calm     74 % 0.0 mm 0.0 W/m2 CLR
01:40 12.1 °C 7.6 °C 1023.2 hPa Calm     74 % 0.0 mm 0.0 W/m2 CLR
01:45 12.1 °C 7.6 °C 1022.9 hPa Calm     74 % 0.0 mm 0.0 W/m2 CLR
01:50 11.9 °C 7.7 °C 1022.9 hPa Calm     75 % 0.0 mm 0.0 W/m2 CLR
01:55 11.8 °C 7.5 °C 1022.9 hPa Calm     75 % 0.0 mm 0.0 W/m2 CLR
02:00 11.7 °C 7.4 °C 1022.9 hPa Calm     75 % 0.0 mm 0.0 W/m2 CLR
02:05 11.6 °C 7.3 °C 1022.9 hPa Calm     75 % 0.0 mm 0.0 W/m2 CLR
02:10 11.6 °C 7.5 °C 1022.9 hPa Calm     76 % 0.0 mm 0.0 W/m2 CLR
02:15 11.6 °C 7.5 °C 1022.9 hPa Calm     76 % 0.0 mm 0.0 W/m2 CLR
02:20 11.6 °C 7.7 °C 1022.9 hPa Calm     77 % 0.0 mm 0.0 W/m2 CLR
02:25 11.6 °C 7.7 °C 1022.6 hPa Calm     77 % 0.0 mm 0.0 W/m2 CLR
02:30 11.5 °C 7.6 °C 1022.6 hPa Calm     77 % 0.0 mm 0.0 W/m2 CLR
02:35 11.6 °C 7.7 °C 1022.6 hPa Calm     77 % 0.0 mm 0.0 W/m2 CLR
02:40 11.8 °C 7.9 °C 1022.6 hPa Calm     77 % 0.0 mm 0.0 W/m2 CLR
02:45 11.8 °C 7.9 °C 1022.6 hPa Calm     77 % 0.0 mm 0.0 W/m2 CLR
02:50 11.7 °C 7.8 °C 1022.6 hPa Calm     77 % 0.0 mm 0.0 W/m2 CLR
02:55 11.5 °C 7.6 °C 1022.6 hPa Calm     77 % 0.0 mm 0.0 W/m2 CLR
03:00 11.4 °C 7.7 °C 1022.9 hPa Calm     78 % 0.0 mm 0.0 W/m2 CLR
03:05 11.6 °C 7.7 °C 1022.9 hPa Calm     77 % 0.0 mm 0.0 W/m2 CLR
03:10 11.8 °C 7.7 °C 1022.6 hPa Calm     76 % 0.0 mm 0.0 W/m2 CLR
03:15 11.8 °C 7.6 °C 1022.6 hPa Calm     75 % 0.0 mm 0.0 W/m2 CLR
03:20 11.8 °C 7.5 °C 1022.9 hPa Calm     75 % 0.0 mm 0.0 W/m2 CLR
03:25 11.5 °C 7.4 °C 1022.6 hPa Calm     76 % 0.0 mm 0.0 W/m2 CLR
03:30 11.3 °C 7.4 °C 1022.6 hPa Calm     77 % 0.0 mm 0.0 W/m2 CLR
03:35 11.1 °C 7.4 °C 1022.6 hPa Calm     78 % 0.0 mm 0.0 W/m2 CLR
03:40 10.9 °C 7.4 °C 1022.6 hPa Calm     79 % 0.0 mm 0.0 W/m2 CLR
03:45 10.8 °C 7.3 °C 1022.6 hPa Calm     79 % 0.0 mm 0.0 W/m2 CLR
03:50 10.6 °C 7.3 °C 1022.9 hPa Calm     80 % 0.0 mm 0.0 W/m2 CLR
03:55 10.5 °C 7.2 °C 1022.6 hPa Calm     80 % 0.0 mm 0.0 W/m2 CLR
04:00 10.4 °C 7.3 °C 1022.6 hPa Calm     81 % 0.0 mm 0.0 W/m2 CLR
04:05 10.3 °C 7.2 °C 1022.6 hPa Calm     81 % 0.0 mm 0.0 W/m2 CLR
04:11 10.2 °C 7.2 °C 1022.6 hPa Calm     82 % 0.0 mm 0.0 W/m2 CLR
04:16 10.0 °C 7.1 °C 1022.6 hPa Calm     82 % 0.0 mm 0.0 W/m2 CLR
04:21 9.8 °C 6.9 °C 1022.6 hPa Calm     82 % 0.0 mm 0.0 W/m2 CLR
04:26 9.8 °C 7.1 °C 1022.2 hPa Calm     83 % 0.0 mm 0.0 W/m2 CLR
04:31 9.8 °C 7.1 °C 1022.2 hPa Calm     83 % 0.0 mm 0.0 W/m2 CLR
04:36 9.8 °C 7.0 °C 1022.2 hPa Calm     83 % 0.0 mm 0.0 W/m2 CLR
04:41 9.7 °C 7.0 °C 1022.2 hPa Calm     83 % 0.0 mm 0.0 W/m2 CLR
04:46 9.7 °C 7.1 °C 1022.2 hPa Calm     84 % 0.0 mm 0.0 W/m2 CLR
04:51 9.6 °C 7.1 °C 1021.9 hPa Calm     84 % 0.0 mm 0.0 W/m2 CLR
04:56 9.6 °C 6.8 °C 1021.9 hPa Calm     83 % 0.0 mm 0.0 W/m2 CLR
05:01 9.4 °C 6.9 °C 1021.9 hPa Calm     84 % 0.0 mm 0.0 W/m2 CLR
05:06 9.4 °C 6.8 °C 1021.9 hPa Calm     84 % 0.0 mm 0.0 W/m2 CLR
05:11 9.3 °C 6.8 °C 1021.9 hPa Calm     84 % 0.0 mm 0.0 W/m2 CLR
05:16 9.3 °C 6.9 °C 1021.9 hPa Calm     85 % 0.0 mm 0.0 W/m2 CLR
05:21 9.3 °C 6.9 °C 1021.9 hPa Calm     85 % 0.0 mm 0.0 W/m2 CLR
05:26 9.2 °C 6.8 °C 1021.9 hPa Calm     85 % 0.0 mm 0.0 W/m2 CLR
05:31 9.2 °C 6.8 °C 1021.9 hPa Calm     85 % 0.0 mm 0.0 W/m2 CLR
05:36 9.2 °C 6.8 °C 1021.6 hPa Calm     85 % 0.0 mm 0.0 W/m2 CLR
05:41 9.1 °C 6.7 °C 1021.6 hPa Calm     85 % 0.0 mm 0.0 W/m2 CLR
05:46 9.1 °C 6.7 °C 1021.6 hPa Calm     85 % 0.0 mm 0.0 W/m2 CLR
05:51 9.1 °C 6.7 °C 1021.9 hPa Calm     85 % 0.0 mm 0.0 W/m2 CLR
05:56 9.1 °C 6.8 °C 1021.6 hPa Calm     86 % 0.0 mm 0.0 W/m2 CLR
06:01 9.1 °C 6.8 °C 1021.6 hPa Calm     86 % 0.0 mm 0.0 W/m2 CLR
06:06 9.0 °C 6.8 °C 1021.6 hPa Calm     86 % 0.0 mm 0.0 W/m2 CLR
06:11 8.9 °C 6.7 °C 1021.6 hPa Calm     86 % 0.0 mm 0.0 W/m2 CLR
06:16 8.9 °C 6.7 °C 1021.6 hPa Calm     86 % 0.0 mm 0.0 W/m2 CLR
06:21 8.9 °C 6.7 °C 1021.6 hPa Calm     86 % 0.0 mm 0.0 W/m2 CLR
06:22 8.9 °C 6.7 °C 1021.6 hPa Calm     86 % 0.0 mm 0.0 W/m2 CLR
06:27 8.8 °C 6.8 °C 1021.6 hPa Calm     87 % 0.0 mm 0.0 W/m2 OVC
06:32 8.9 °C 6.8 °C 1021.9 hPa Calm     87 % 0.0 mm 0.0 W/m2 OVC
06:37 8.9 °C 6.8 °C 1021.9 hPa Calm     87 % 0.0 mm 0.0 W/m2 OVC
06:42 9.0 °C 6.9 °C 1021.9 hPa Calm     87 % 0.0 mm 5.0 W/m2 OVC
06:47 9.1 °C 7.1 °C 1021.9 hPa Calm     87 % 0.0 mm 11.0 W/m2 BKN
06:53 9.2 °C 6.9 °C 1021.9 hPa Calm     86 % 0.0 mm 12.0 W/m2 BKN
06:58 9.2 °C 6.9 °C 1021.9 hPa Calm     86 % 0.0 mm 14.0 W/m2 BKN
07:03 9.2 °C 7.0 °C 1021.9 hPa Calm     86 % 0.0 mm 19.0 W/m2 BKN
07:08 9.3 °C 7.1 °C 1021.9 hPa Calm     86 % 0.0 mm 28.0 W/m2 BKN
07:13 9.3 °C 7.1 °C 1021.9 hPa Calm     86 % 0.0 mm 39.0 W/m2 BKN
07:18 9.3 °C 7.1 °C 1021.9 hPa Calm     86 % 0.0 mm 49.0 W/m2 SCT
07:23 9.4 °C 7.2 °C 1021.9 hPa Calm     86 % 0.0 mm 54.0 W/m2 SCT
07:28 9.4 °C 7.2 °C 1021.9 hPa Calm     86 % 0.0 mm 62.0 W/m2 SCT
07:33 9.6 °C 7.3 °C 1021.9 hPa Calm     86 % 0.0 mm 70.0 W/m2 FEW
07:38 9.7 °C 7.4 °C 1021.9 hPa Calm     86 % 0.0 mm 83.0 W/m2 FEW
07:43 9.8 °C 7.6 °C 1021.9 hPa Calm     86 % 0.0 mm 104.0 W/m2 FEW
07:48 10.0 °C 7.8 °C 1021.9 hPa Calm     86 % 0.0 mm 121.0 W/m2 CLR
07:53 10.2 °C 7.9 °C 1021.9 hPa Calm     86 % 0.0 mm 137.0 W/m2 CLR
07:58 10.4 °C 8.0 °C 1021.9 hPa Calm     85 % 0.0 mm 148.0 W/m2 CLR
08:03 10.7 °C 8.2 °C 1021.9 hPa Calm     85 % 0.0 mm 162.0 W/m2 CLR
08:08 10.9 °C 8.3 °C 1021.9 hPa Calm     84 % 0.0 mm 151.0 W/m2 CLR
08:13 11.2 °C 8.6 °C 1021.9 hPa Calm     84 % 0.0 mm 207.0 W/m2 CLR
08:18 11.5 °C 8.7 °C 1021.9 hPa Calm     83 % 0.0 mm 206.0 W/m2 CLR
08:23 11.8 °C 8.8 °C 1021.9 hPa Calm     82 % 0.0 mm 258.0 W/m2 CLR
08:28 12.2 °C 9.2 °C 1021.6 hPa Calm     82 % 0.0 mm 239.0 W/m2 CLR
08:33 12.6 °C 9.4 °C 1021.9 hPa Calm     81 % 0.0 mm 236.0 W/m2 CLR
08:38 13.0 °C 9.4 °C 1021.6 hPa Calm     79 % 0.0 mm 216.0 W/m2 CLR
08:43 13.3 °C 9.5 °C 1021.6 hPa Calm     78 % 0.0 mm 223.0 W/m2 CLR
08:48 13.6 °C 9.8 °C 1021.6 hPa Calm     78 % 0.0 mm 223.0 W/m2 CLR
08:53 14.0 °C 10.1 °C 1021.6 hPa Calm     77 % 0.0 mm 262.0 W/m2 CLR
08:58 14.4 °C 10.2 °C 1021.6 hPa Calm     76 % 0.0 mm 260.0 W/m2 CLR
09:03 14.7 °C 10.3 °C 1021.6 hPa Calm     75 % 0.0 mm 248.0 W/m2 CLR
09:08 15.1 °C 10.5 °C 1021.6 hPa Calm     74 % 0.0 mm 248.0 W/m2 CLR
09:13 15.2 °C 10.4 °C 1021.2 hPa Calm     73 % 0.0 mm 285.0 W/m2 CLR
09:18 15.3 °C 10.7 °C 1021.2 hPa Calm     74 % 0.0 mm 297.0 W/m2 CLR
09:23 15.6 °C 11.0 °C 1021.2 hPa Calm     74 % 0.0 mm 339.0 W/m2 CLR
09:28 16.0 °C 11.2 °C 1021.2 hPa Calm     73 % 0.0 mm 353.0 W/m2 CLR
09:33 16.4 °C 11.4 °C 1021.2 hPa Calm     72 % 0.0 mm 343.0 W/m2 CLR
09:38 16.8 °C 11.8 °C 1021.2 hPa Calm     72 % 0.0 mm 420.0 W/m2 CLR
09:43 17.2 °C 11.9 °C 1021.2 hPa Calm     71 % 0.0 mm 411.0 W/m2 CLR
09:48 17.7 °C 12.1 °C 1021.2 hPa Calm     70 % 0.0 mm 388.0 W/m2 CLR
09:53 18.1 °C 12.3 °C 1021.2 hPa Calm     69 % 0.0 mm 364.0 W/m2 CLR
09:58 18.5 °C 12.5 °C 1021.2 hPa Calm     68 % 0.0 mm 376.0 W/m2 CLR
10:03 18.7 °C 12.7 °C 1021.2 hPa Calm     68 % 0.0 mm 417.0 W/m2 CLR
10:08 18.9 °C 12.7 °C 1021.2 hPa Calm     67 % 0.0 mm 394.0 W/m2 CLR
10:13 19.2 °C 12.7 °C 1021.2 hPa Calm     66 % 0.0 mm 383.0 W/m2 CLR
10:18 19.3 °C 12.8 °C 1021.2 hPa Calm     66 % 0.0 mm 448.0 W/m2 CLR
10:23 19.7 °C 13.1 °C 1021.2 hPa Calm     66 % 0.0 mm 534.0 W/m2 CLR
10:28 19.9 °C 12.9 °C 1021.2 hPa Calm     64 % 0.0 mm 520.0 W/m2 CLR
10:33 20.2 °C 12.9 °C 1021.2 hPa Calm     63 % 0.0 mm 512.0 W/m2 CLR
10:38 20.4 °C 13.3 °C 1021.2 hPa Calm     64 % 0.0 mm 587.0 W/m2 CLR
10:43 20.6 °C 13.1 °C 1021.2 hPa Calm     62 % 0.0 mm 589.0 W/m2 CLR
10:48 20.8 °C 13.3 °C 1021.2 hPa Calm     62 % 0.0 mm 564.0 W/m2 CLR
10:53 21.1 °C 13.2 °C 1021.2 hPa Calm     61 % 0.0 mm 582.0 W/m2 CLR
10:58 21.3 °C 13.5 °C 1021.2 hPa NE 3.2 km/h   61 % 0.0 mm 679.0 W/m2 CLR
11:03 21.5 °C 13.4 °C 1021.2 hPa NE 9.3 km/h 9.3 km/h 60 % 0.0 mm 642.0 W/m2 CLR
11:08 21.4 °C 13.1 °C 1021.2 hPa East 9.3 km/h 9.3 km/h 59 % 0.0 mm 617.0 W/m2 CLR
11:13 21.4 °C 13.3 °C 1021.2 hPa NE 3.7 km/h 3.7 km/h 60 % 0.0 mm 659.0 W/m2 CLR
11:18 21.7 °C 13.1 °C 1020.9 hPa ENE 9.3 km/h 9.3 km/h 58 % 0.0 mm 591.0 W/m2 CLR
11:23 21.6 °C 13.2 °C 1020.9 hPa ENE 8.0 km/h 8.0 km/h 59 % 0.0 mm 724.0 W/m2 CLR
11:28 21.7 °C 13.3 °C 1020.9 hPa NE 13.0 km/h 13.0 km/h 59 % 0.0 mm 691.0 W/m2 CLR
11:33 21.8 °C 13.2 °C 1020.9 hPa NE 11.1 km/h 11.1 km/h 58 % 0.0 mm 643.0 W/m2 CLR
11:38 21.9 °C 13.0 °C 1020.9 hPa ENE 9.7 km/h 9.7 km/h 57 % 0.0 mm 615.0 W/m2 CLR
11:43 22.1 °C 12.6 °C 1020.9 hPa ENE 11.1 km/h 11.1 km/h 55 % 0.0 mm 649.0 W/m2 CLR
11:48 22.3 °C 11.9 °C 1020.9 hPa ENE 3.7 km/h   52 % 0.0 mm 640.0 W/m2 CLR
11:53 22.6 °C 11.6 °C 1020.9 hPa NNE 8.0 km/h 8.0 km/h 50 % 0.0 mm 721.0 W/m2 CLR
11:58 22.8 °C 12.7 °C 1020.9 hPa ENE 11.1 km/h 11.1 km/h 53 % 0.0 mm 708.0 W/m2 CLR
12:03 22.9 °C 13.4 °C 1020.5 hPa North 9.7 km/h 9.7 km/h 55 % 0.0 mm 761.0 W/m2 CLR
12:05 22.9 °C 13.4 °C 1020.5 hPa North 14.5 km/h 14.5 km/h 55 % 0.0 mm 773.0 W/m2 CLR
12:10 23.1 °C 13.2 °C 1020.5 hPa NE 14.5 km/h 14.5 km/h 54 % 0.0 mm 870.0 W/m2 CLR
12:15 23.1 °C 12.7 °C 1020.2 hPa ENE 14.8 km/h 14.8 km/h 52 % 0.0 mm 626.0 W/m2 CLR
12:20 23.2 °C 12.2 °C 1020.2 hPa ENE 11.1 km/h 11.1 km/h 50 % 0.0 mm 482.0 W/m2 CLR
12:26 23.0 °C 12.0 °C 1020.2 hPa NE 9.7 km/h 9.7 km/h 50 % 0.0 mm 478.0 W/m2 CLR
12:31 23.0 °C 12.6 °C 1020.2 hPa NNE 13.0 km/h 13.0 km/h 52 % 0.0 mm 483.0 W/m2 CLR
12:36 22.9 °C 12.5 °C 1020.2 hPa NNE 7.4 km/h 7.4 km/h 52 % 0.0 mm 443.0 W/m2 CLR
12:41 23.0 °C 12.6 °C 1019.9 hPa NE 13.0 km/h 13.0 km/h 52 % 0.0 mm 563.0 W/m2 CLR
12:46 23.2 °C 12.5 °C 1019.9 hPa NNE 9.3 km/h 9.3 km/h 51 % 0.0 mm 691.0 W/m2 CLR
12:51 23.6 °C 12.6 °C 1019.9 hPa NE 14.8 km/h 14.8 km/h 50 % 0.0 mm 780.0 W/m2 CLR
12:56 23.9 °C 12.5 °C 1019.5 hPa NNE 16.7 km/h 16.7 km/h 49 % 0.0 mm 986.0 W/m2 CLR
13:01 24.1 °C 12.4 °C 1019.5 hPa NNE 14.8 km/h 14.8 km/h 48 % 0.0 mm 963.0 W/m2 CLR
13:06 24.3 °C 12.6 °C 1019.5 hPa NE 7.4 km/h 8.2 km/h 48 % 0.0 mm 954.0 W/m2 CLR
13:11 24.6 °C 12.6 °C 1019.2 hPa ENE 18.5 km/h 18.5 km/h 47 % 0.0 mm 956.0 W/m2 CLR
13:16 24.8 °C 12.4 °C 1019.2 hPa NE 9.3 km/h 9.3 km/h 46 % 0.0 mm 937.0 W/m2 CLR
13:21 25.1 °C 12.6 °C 1019.2 hPa ENE 9.3 km/h 9.3 km/h 46 % 0.0 mm 967.0 W/m2 CLR
13:26 25.2 °C 12.7 °C 1019.2 hPa ENE 11.3 km/h 11.3 km/h 46 % 0.0 mm 823.0 W/m2 CLR
13:31 25.1 °C 11.9 °C 1018.8 hPa NE 8.0 km/h 8.0 km/h 44 % 0.0 mm 942.0 W/m2 CLR
13:36 25.2 °C 12.4 °C 1018.8 hPa East 13.0 km/h 13.0 km/h 45 % 0.0 mm 954.0 W/m2 CLR
13:41 25.1 °C 12.3 °C 1018.8 hPa ENE 16.7 km/h 16.7 km/h 45 % 0.0 mm 958.0 W/m2 CLR
13:46 25.6 °C 12.8 °C 1018.8 hPa NE 16.1 km/h 16.1 km/h 45 % 0.0 mm 949.0 W/m2 CLR
13:51 25.8 °C 12.7 °C 1018.5 hPa East 16.7 km/h 16.7 km/h 44 % 0.0 mm 956.0 W/m2 CLR
13:56 25.6 °C 12.4 °C 1018.5 hPa ENE 13.0 km/h 13.0 km/h 44 % 0.0 mm 953.0 W/m2 CLR
14:01 25.6 °C 12.8 °C 1018.5 hPa NE 9.7 km/h 9.7 km/h 45 % 0.0 mm 865.0 W/m2 CLR
14:06 25.9 °C 12.3 °C 1018.5 hPa ESE 16.7 km/h 16.7 km/h 43 % 0.0 mm 809.0 W/m2 CLR
14:11 25.9 °C 12.7 °C 1018.5 hPa ENE 11.3 km/h 11.3 km/h 44 % 0.0 mm 838.0 W/m2 CLR
14:16 25.9 °C 12.3 °C 1018.5 hPa SE 8.0 km/h 8.0 km/h 43 % 0.0 mm 788.0 W/m2 CLR
14:21 25.9 °C 12.4 °C 1018.5 hPa Calm     43 % 0.0 mm 796.0 W/m2 CLR
14:26 26.1 °C 12.2 °C 1018.2 hPa SE 14.8 km/h 14.8 km/h 42 % 0.0 mm 904.0 W/m2 CLR
14:31 26.0 °C 12.4 °C 1018.2 hPa ESE 1.9 km/h 1.9 km/h 43 % 0.0 mm 896.0 W/m2 CLR
14:36 26.5 °C 12.9 °C 1018.2 hPa ENE 7.4 km/h 7.4 km/h 43 % 0.0 mm 933.0 W/m2 CLR
14:41 27.1 °C 13.1 °C 1018.2 hPa East 16.7 km/h 16.7 km/h 42 % 0.0 mm 949.0 W/m2 CLR
14:46 27.3 °C 13.2 °C 1017.8 hPa NE 14.8 km/h 14.8 km/h 42 % 0.0 mm 928.0 W/m2 CLR
14:51 27.4 °C 13.3 °C 1017.8 hPa ENE 7.4 km/h 7.4 km/h 42 % 0.0 mm 930.0 W/m2 CLR
14:56 27.2 °C 12.8 °C 1017.8 hPa East 14.8 km/h 14.8 km/h 41 % 0.0 mm 773.0 W/m2 CLR
15:01 27.3 °C 13.6 °C 1017.8 hPa ENE 6.4 km/h 6.4 km/h 43 % 0.0 mm 784.0 W/m2 CLR
15:06 27.3 °C 13.7 °C 1017.5 hPa ENE 11.1 km/h 11.1 km/h 43 % 0.0 mm 782.0 W/m2 CLR
15:11 27.5 °C 13.8 °C 1017.5 hPa ESE 9.3 km/h 9.3 km/h 43 % 0.0 mm 598.0 W/m2 CLR
15:16 27.3 °C 13.2 °C 1017.8 hPa Calm     42 % 0.0 mm 499.0 W/m2 CLR
15:21 26.9 °C 13.3 °C 1017.5 hPa Calm     43 % 0.0 mm 427.0 W/m2 CLR
15:26 26.7 °C 13.4 °C 1017.5 hPa ENE 9.3 km/h 9.3 km/h 44 % 0.0 mm 431.0 W/m2 CLR
15:31 26.6 °C 13.7 °C 1017.5 hPa ENE 11.1 km/h 11.1 km/h 45 % 0.0 mm 390.0 W/m2 CLR
15:36 26.4 °C 13.8 °C 1017.2 hPa ENE 9.3 km/h 9.3 km/h 46 % 0.0 mm 403.0 W/m2 CLR
15:41 26.3 °C 13.7 °C 1017.5 hPa ENE 16.7 km/h 16.7 km/h 46 % 0.0 mm 431.0 W/m2 CLR
15:46 26.3 °C 14.1 °C 1017.5 hPa ESE 14.8 km/h 14.8 km/h 47 % 0.0 mm 487.0 W/m2 CLR
15:51 26.3 °C 14.1 °C 1017.2 hPa ESE 14.8 km/h 14.8 km/h 47 % 0.0 mm 601.0 W/m2 CLR
15:56 26.4 °C 13.9 °C 1017.2 hPa ESE 14.8 km/h 14.8 km/h 46 % 0.0 mm 475.0 W/m2 CLR
16:01 26.3 °C 14.1 °C 1017.2 hPa East 16.7 km/h 16.7 km/h 47 % 0.0 mm 482.0 W/m2 CLR
16:06 26.2 °C 14.0 °C 1017.2 hPa ESE 13.0 km/h 13.0 km/h 47 % 0.0 mm 591.0 W/m2 CLR
16:11 26.3 °C 14.4 °C 1017.2 hPa ESE 9.3 km/h 9.3 km/h 48 % 0.0 mm 492.0 W/m2 CLR
16:21 26.1 °C 14.2 °C 1017.2 hPa East 13.0 km/h 13.0 km/h 48 % 0.0 mm 454.0 W/m2 CLR
16:26 26.1 °C 13.6 °C 1016.8 hPa East 14.5 km/h 14.5 km/h 46 % 0.0 mm 459.0 W/m2 CLR
16:31 25.9 °C 14.1 °C 1016.8 hPa East 18.5 km/h 18.5 km/h 48 % 0.0 mm 503.0 W/m2 CLR
16:36 25.8 °C 14.3 °C 1016.8 hPa ESE 14.8 km/h 14.8 km/h 49 % 0.0 mm 504.0 W/m2 CLR
16:41 25.7 °C 13.5 °C 1016.8 hPa SE 18.5 km/h 18.5 km/h 47 % 0.0 mm 487.0 W/m2 CLR
16:46 25.6 °C 14.1 °C 1016.8 hPa ESE 18.5 km/h 18.5 km/h 49 % 0.0 mm 478.0 W/m2 CLR
16:51 25.6 °C 14.1 °C 1016.8 hPa East 9.3 km/h 9.3 km/h 49 % 0.0 mm 454.0 W/m2 CLR
16:56 25.6 °C 14.1 °C 1016.8 hPa ESE 16.7 km/h 16.7 km/h 49 % 0.0 mm 424.0 W/m2 CLR
17:01 25.7 °C 14.4 °C 1016.8 hPa SE 11.1 km/h 11.1 km/h 50 % 0.0 mm 431.0 W/m2 CLR
17:06 25.6 °C 14.1 °C 1016.8 hPa SE 18.5 km/h 18.5 km/h 49 % 0.0 mm 387.0 W/m2 CLR
17:11 25.6 °C 14.4 °C 1016.8 hPa SE 9.3 km/h 9.3 km/h 50 % 0.0 mm 353.0 W/m2 CLR
17:16 25.7 °C 14.5 °C 1016.8 hPa ESE 9.3 km/h 9.3 km/h 50 % 0.0 mm 332.0 W/m2 CLR
17:21 25.8 °C 14.3 °C 1016.5 hPa ESE 14.8 km/h 14.8 km/h 49 % 0.0 mm 294.0 W/m2 CLR
17:26 25.7 °C 14.4 °C 1016.5 hPa East 13.0 km/h 13.0 km/h 50 % 0.0 mm 274.0 W/m2 CLR
17:31 25.5 °C 14.6 °C 1016.5 hPa ESE 13.0 km/h 13.0 km/h 51 % 0.0 mm 251.0 W/m2 CLR
17:36 25.4 °C 14.5 °C 1016.5 hPa East 16.7 km/h 16.7 km/h 51 % 0.0 mm 230.0 W/m2 CLR
17:41 25.6 °C 14.7 °C 1016.5 hPa East 6.4 km/h 6.4 km/h 51 % 0.0 mm 200.0 W/m2 CLR
17:42 25.6 °C 14.7 °C 1016.5 hPa East 8.0 km/h 8.0 km/h 51 % 0.0 mm 195.0 W/m2 CLR
17:47 25.4 °C 14.6 °C 1016.5 hPa ESE 14.8 km/h 14.8 km/h 51 % 0.0 mm 176.0 W/m2 CLR
17:52 25.3 °C 14.4 °C 1016.5 hPa ESE 13.0 km/h 13.0 km/h 51 % 0.0 mm 181.0 W/m2 CLR
17:57 25.2 °C 14.4 °C 1016.8 hPa ESE 11.1 km/h 11.1 km/h 51 % 0.0 mm 186.0 W/m2 CLR
18:02 25.1 °C 14.3 °C 1016.8 hPa East 16.7 km/h 16.7 km/h 51 % 0.0 mm 186.0 W/m2 CLR
18:07 24.9 °C 14.4 °C 1016.8 hPa ESE 9.3 km/h 9.3 km/h 52 % 0.0 mm 178.0 W/m2 CLR
18:12 24.8 °C 14.3 °C 1016.8 hPa East 9.3 km/h 9.3 km/h 52 % 0.0 mm 162.0 W/m2 CLR
18:17 24.8 °C 14.3 °C 1016.8 hPa ESE 11.1 km/h 11.1 km/h 52 % 0.0 mm 148.0 W/m2 CLR
18:22 24.8 °C 13.9 °C 1016.8 hPa ESE 13.0 km/h 13.0 km/h 51 % 0.0 mm 135.0 W/m2 CLR
18:27 24.8 °C 14.3 °C 1016.8 hPa ESE 9.3 km/h 9.3 km/h 52 % 0.0 mm 128.0 W/m2 CLR
18:32 24.8 °C 14.0 °C 1016.8 hPa ESE 7.4 km/h 7.4 km/h 51 % 0.0 mm 118.0 W/m2 CLR
18:37 24.7 °C 14.2 °C 1016.8 hPa Calm     52 % 0.0 mm 109.0 W/m2 CLR
18:42 24.7 °C 14.2 °C 1016.8 hPa ESE 9.3 km/h 9.3 km/h 52 % 0.0 mm 100.0 W/m2 CLR
18:47 24.6 °C 14.1 °C 1016.8 hPa East 7.4 km/h 7.4 km/h 52 % 0.0 mm 114.0 W/m2 CLR
18:52 24.4 °C 14.2 °C 1016.8 hPa ESE 13.0 km/h 13.0 km/h 53 % 0.0 mm 118.0 W/m2 CLR
18:57 24.3 °C 14.1 °C 1016.5 hPa ESE 13.0 km/h 13.0 km/h 53 % 0.0 mm 113.0 W/m2 CLR
19:02 24.3 °C 14.1 °C 1016.5 hPa ESE 11.1 km/h 11.1 km/h 53 % 0.0 mm 107.0 W/m2 CLR
19:07 24.4 °C 14.2 °C 1016.5 hPa ESE 7.4 km/h 7.4 km/h 53 % 0.0 mm 95.0 W/m2 CLR
19:12 24.6 °C 13.8 °C 1016.5 hPa East 7.4 km/h 7.4 km/h 51 % 0.0 mm 74.0 W/m2 CLR
19:17 24.8 °C 13.4 °C 1016.5 hPa ESE 9.3 km/h 9.3 km/h 49 % 0.0 mm 63.0 W/m2 FEW
19:22 24.9 °C 13.8 °C 1016.1 hPa SE 9.3 km/h 9.3 km/h 50 % 0.0 mm 58.0 W/m2 SCT
19:27 24.9 °C 13.1 °C 1016.1 hPa SE 11.1 km/h 11.1 km/h 48 % 0.0 mm 47.0 W/m2 SCT
19:32 25.2 °C 12.7 °C 1016.1 hPa SE 11.1 km/h 11.1 km/h 46 % 0.0 mm 40.0 W/m2 SCT
19:37 25.1 °C 13.0 °C 1015.8 hPa SE 14.8 km/h 14.8 km/h 47 % 0.0 mm 39.0 W/m2 BKN
19:42 25.0 °C 12.9 °C 1015.8 hPa ESE 13.0 km/h 13.0 km/h 47 % 0.0 mm 60.0 W/m2 BKN
19:47 24.7 °C 13.3 °C 1015.8 hPa ESE 9.3 km/h 9.3 km/h 49 % 0.0 mm 63.0 W/m2 SCT
19:52 24.3 °C 13.2 °C 1015.8 hPa East 9.3 km/h 9.3 km/h 50 % 0.0 mm 56.0 W/m2 SCT
19:57 23.9 °C 13.1 °C 1015.8 hPa SE 14.8 km/h 14.8 km/h 51 % 0.0 mm 47.0 W/m2 SCT
20:02 23.5 °C 13.1 °C 1015.5 hPa SE 14.8 km/h 14.8 km/h 52 % 0.0 mm 40.0 W/m2 SCT
20:07 23.3 °C 13.2 °C 1015.8 hPa ENE 7.4 km/h 7.4 km/h 53 % 0.0 mm 40.0 W/m2 BKN
20:12 23.1 °C 13.0 °C 1015.8 hPa ESE 11.1 km/h 11.1 km/h 53 % 0.0 mm 51.0 W/m2 BKN
20:17 22.9 °C 13.1 °C 1016.1 hPa Calm     54 % 0.0 mm 51.0 W/m2 SCT
20:18 22.9 °C 13.1 °C 1016.1 hPa Calm     54 % 0.0 mm 51.0 W/m2 SCT
20:23 22.9 °C 13.1 °C 1016.1 hPa Calm     54 % 0.0 mm 47.0 W/m2 SCT
20:28 22.8 °C 13.3 °C 1016.1 hPa NE 5.6 km/h   55 % 0.0 mm 39.0 W/m2 BKN
20:33 22.6 °C 13.1 °C 1016.1 hPa Calm     55 % 0.0 mm 33.0 W/m2 BKN
20:38 22.3 °C 13.1 °C 1016.1 hPa East 6.4 km/h 6.4 km/h 56 % 0.0 mm 40.0 W/m2 BKN
20:43 22.1 °C 12.9 °C 1016.1 hPa ENE 1.9 km/h   56 % 0.0 mm 33.0 W/m2 BKN
20:48 22.1 °C 13.2 °C 1016.1 hPa Calm     57 % 0.0 mm 25.0 W/m2 BKN
20:50 21.9 °C 13.1 °C 1016.1 hPa Calm     57 % 0.0 mm 23.0 W/m2 BKN
20:55 21.8 °C 13.2 °C 1016.1 hPa Calm     58 % 0.0 mm 16.0 W/m2 BKN
21:00 21.7 °C 13.1 °C 1016.1 hPa Calm     58 % 0.0 mm 11.0 W/m2 BKN
21:05 21.4 °C 12.8 °C 1016.1 hPa ESE 1.9 km/h   58 % 0.0 mm 5.0 W/m2 BKN
21:10 21.2 °C 12.9 °C 1016.1 hPa East 5.6 km/h 5.6 km/h 59 % 0.0 mm 0.0 W/m2 OVC
21:15 21.0 °C 12.7 °C 1016.1 hPa East 5.6 km/h 5.6 km/h 59 % 0.0 mm 0.0 W/m2 OVC
21:20 20.8 °C 12.8 °C 1016.1 hPa ESE 5.6 km/h 5.6 km/h 60 % 0.0 mm 0.0 W/m2 OVC
21:25 20.8 °C 12.7 °C 1016.1 hPa ESE 5.6 km/h 5.6 km/h 60 % 0.0 mm 0.0 W/m2 OVC
21:30 20.7 °C 12.7 °C 1015.8 hPa Calm     60 % 0.0 mm 0.0 W/m2 CLR
21:35 20.6 °C 12.5 °C 1015.8 hPa East 9.3 km/h 9.3 km/h 60 % 0.0 mm 0.0 W/m2 CLR
21:40 20.4 °C 12.7 °C 1015.8 hPa Calm     61 % 0.0 mm 0.0 W/m2 CLR
21:45 20.4 °C 12.6 °C 1015.8 hPa ESE 5.6 km/h 5.6 km/h 61 % 0.0 mm 0.0 W/m2 CLR
21:50 20.4 °C 12.4 °C 1015.8 hPa Calm     60 % 0.0 mm 0.0 W/m2 CLR
21:55 20.4 °C 12.4 °C 1015.8 hPa Calm     60 % 0.0 mm 0.0 W/m2 CLR
21:56 20.4 °C 12.4 °C 1015.8 hPa Calm     60 % 0.0 mm 0.0 W/m2 CLR
22:01 20.4 °C 12.4 °C 1016.1 hPa Calm     60 % 0.0 mm 0.0 W/m2 CLR
22:06 20.4 °C 12.4 °C 1016.1 hPa Calm     60 % 0.0 mm 0.0 W/m2 CLR
22:11 20.5 °C 12.4 °C 1016.1 hPa Calm     60 % 0.0 mm 0.0 W/m2 CLR
22:16 20.6 °C 12.3 °C 1016.1 hPa SSW 7.4 km/h 7.4 km/h 59 % 0.0 mm 0.0 W/m2 CLR
22:21 20.6 °C 12.3 °C 1016.1 hPa Calm     59 % 0.0 mm 0.0 W/m2 CLR
22:26 20.6 °C 12.3 °C 1016.1 hPa Calm     59 % 0.0 mm 0.0 W/m2 CLR
22:31 20.5 °C 12.2 °C 1016.5 hPa Calm     59 % 0.0 mm 0.0 W/m2 CLR
22:36 20.4 °C 12.2 °C 1016.1 hPa Calm     59 % 0.0 mm 0.0 W/m2 CLR
22:41 20.3 °C 12.3 °C 1016.1 hPa ENE 3.7 km/h 3.7 km/h 60 % 0.0 mm 0.0 W/m2 CLR
22:46 20.1 °C 12.1 °C 1016.1 hPa Calm     60 % 0.0 mm 0.0 W/m2 CLR
22:51 19.8 °C 12.1 °C 1015.8 hPa Calm     61 % 0.0 mm 0.0 W/m2 CLR
22:56 19.7 °C 12.0 °C 1015.8 hPa Calm     61 % 0.0 mm 0.0 W/m2 CLR
23:01 19.7 °C 12.2 °C 1015.8 hPa Calm     62 % 0.0 mm 0.0 W/m2 CLR
23:06 19.6 °C 12.1 °C 1015.8 hPa Calm     62 % 0.0 mm 0.0 W/m2 CLR
23:11 19.4 °C 11.9 °C 1015.8 hPa Calm     62 % 0.0 mm 0.0 W/m2 CLR
23:16 19.3 °C 12.1 °C 1015.8 hPa East 7.4 km/h 7.4 km/h 63 % 0.0 mm 0.0 W/m2 CLR
23:21 19.2 °C 11.9 °C 1015.8 hPa Calm     63 % 0.0 mm 0.0 W/m2 CLR
23:26 19.0 °C 12.1 °C 1015.8 hPa Calm     64 % 0.0 mm 0.0 W/m2 CLR
23:31 18.9 °C 11.9 °C 1015.8 hPa Calm     64 % 0.0 mm 0.0 W/m2 CLR
23:36 18.8 °C 11.8 °C 1015.8 hPa Calm     64 % 0.0 mm 0.0 W/m2 CLR
23:41 18.8 °C 12.1 °C 1015.8 hPa East 1.9 km/h 1.9 km/h 65 % 0.0 mm 0.0 W/m2 CLR
23:46 18.7 °C 11.9 °C 1015.8 hPa Calm     65 % 0.0 mm 0.0 W/m2 CLR
23:51 18.6 °C 11.8 °C 1015.8 hPa Calm     65 % 0.0 mm 0.0 W/m2 CLR
23:56 18.5 °C 11.8 °C 1015.5 hPa Calm     65 % 0.0 mm 0.0 W/m2 CLR
Lo Temps de Massalio
Compliments of Weather Underground - 1.25 mb